Terug naar catalogus

GOES 6

ActiefWeerGEO
NORAD 14050·PAYLOAD·🇺🇸 United States

Gelanceerd Apr 28, 1983 vanaf Cape Canaveral Space Force Station

Loading…

TLE

VersSource: Space-Track

Epoch: Sep 14, 2026, 09:49 UTC

1 14050U 83041A   26257.40966990  .00000060  00000-0  00000-0 0  9997
2 14050  10.0549 320.6868 0003169 261.9298 144.0438  1.00265370216917

Volg GOES 6 in realtime met AllMySat

Download on the App Store